Beaufort, SC

1:02 PM EST on February 23, 2017 (GMT -0500)
Beaufort Marine Corps Air Station

Weather History for KNBC - November, 2012

Change the Weather History Date:

Thursday, November 15, 2012

  Actual Average Record
Temperature  
Mean Temperature 48 °F -  
Max Temperature 51 °F 67 °F 84 °F (1955)
Min Temperature 46 °F 47 °F 26 °F (1969)
Degree Days  
Heating Degree Days 16    
Moisture  
Dew Point 45 °F    
Average Humidity 90    
Maximum Humidity 96    
Minimum Humidity 80    
Precipitation  
Precipitation 0.38 in - - ()
Sea Level Pressure  
Sea Level Pressure 30.22 in    
Wind  
Wind Speed 9 mph (NNE)    
Max Wind Speed 14 mph    
Max Gust Speed -    
Visibility 8 miles    
Events Rain    
Averages and records for this station are not official NWS values.
T = Trace of Precipitation, MM = Missing Value Source: NWS Daily Summary

Daily Weather History Graph

Daily Weather History Graph

Search for Another Location

Airport or City:

Trip Planner

Search our weather history database for the weather conditions in past years. The results will help you decide how hot, cold, wet, or windy it might be!

Date:

Astronomy

Nov. 15, 2012 Rise Set
Actual Time 6:52 AM EST 5:21 PM EST
Civil Twilight 6:26 AM EST 5:48 PM EST
Nautical Twilight 5:57 AM EST 6:17 PM EST
Astronomical Twilight 5:27 AM EST 6:46 PM EST
Moon 8:43 AM EST (11/15) 7:15 PM EST (11/15)
Length of Visible Light 11h 21m
Length of Day
10h 29m
Waxing Crescent, 5% of the Moon is Illuminated
Nov 15
Waxing Crescent
Nov 20
First Quarter
Nov 28
Full
Dec 6
Last Quarter
Dec 13
New

Hourly Weather History & Observations

Time (EST) Temp. Windchill Dew Point Humidity Pressure Visibility Wind Dir Wind Speed Gust Speed Precip Events Conditions
12:56 AM 51.1 °F - 45.0 °F 80% 30.21 in 10.0 mi ENE 8.1 mph - N/A   Overcast
1:56 AM 50.0 °F - 46.0 °F 86% 30.19 in 10.0 mi ENE 10.4 mph - 0.00 in   Overcast
2:34 AM 50.0 °F - 46.4 °F 87% 30.19 in 7.0 mi NNE 6.9 mph - 0.04 in Rain Light Rain
2:56 AM 50.0 °F - 46.9 °F 89% 30.19 in 10.0 mi NNE 6.9 mph - 0.04 in   Overcast
3:56 AM 50.0 °F - 46.0 °F 86% 30.18 in 10.0 mi NE 8.1 mph - N/A   Overcast
4:10 AM 50.0 °F - 46.4 °F 87% 30.20 in 10.0 mi North 6.9 mph - N/A   Overcast
4:56 AM 50.0 °F - 46.0 °F 86% 30.21 in 10.0 mi NNE 9.2 mph - N/A   Overcast
5:42 AM 48.2 °F - 46.4 °F 93% 30.21 in 4.0 mi NNE 12.7 mph - 0.04 in Rain Light Rain
5:44 AM 48.2 °F - 46.4 °F 93% 30.21 in 4.0 mi NNE 11.5 mph - 0.04 in Rain Light Rain
5:56 AM 48.9 °F - 46.0 °F 90% 30.22 in 10.0 mi North 10.4 mph - 0.04 in   Overcast
6:16 AM 48.2 °F - 46.4 °F 93% 30.22 in 9.0 mi North 8.1 mph - N/A   Overcast
6:56 AM 46.9 °F - 45.0 °F 93% 30.25 in 3.0 mi North 12.7 mph - 0.11 in Rain Heavy Rain
7:56 AM 46.0 °F 40.2 °F 43.0 °F 89% 30.25 in 4.0 mi NNE 12.7 mph - 0.03 in   Overcast
8:56 AM 46.0 °F 40.2 °F 43.0 °F 89% 30.24 in 10.0 mi NE 12.7 mph - 0.01 in   Overcast
9:37 AM 46.4 °F 42.4 °F 44.6 °F 93% 30.24 in 3.0 mi North 8.1 mph - 0.01 in Rain Rain
9:56 AM 46.9 °F - 45.0 °F 93% 30.25 in 3.0 mi North 8.1 mph - 0.09 in Rain Rain
10:03 AM 46.4 °F 41.9 °F 44.6 °F 93% 30.23 in 4.0 mi NNE 9.2 mph - 0.02 in Rain Rain
10:32 AM 48.2 °F - 44.6 °F 87% 30.24 in 10.0 mi NNW 6.9 mph - 0.06 in Rain Rain
10:56 AM 48.9 °F - 46.0 °F 90% 30.23 in 10.0 mi North 9.2 mph - 0.06 in   Overcast
11:56 AM 50.0 °F - 46.9 °F 89% 30.22 in 10.0 mi North 12.7 mph - N/A   Overcast
12:56 PM 50.0 °F - 46.9 °F 89% 30.21 in 10.0 mi North 8.1 mph - N/A   Overcast
1:56 PM 48.9 °F - 46.0 °F 90% 30.20 in 10.0 mi North 11.5 mph - N/A   Overcast
2:56 PM 48.9 °F - 46.0 °F 90% 30.20 in 5.0 mi North 9.2 mph - N/A   Overcast
3:56 PM 48.0 °F - 46.0 °F 93% 30.20 in 6.0 mi NNE 11.5 mph - N/A   Overcast
4:56 PM 48.0 °F - 45.0 °F 89% 30.21 in 7.0 mi North 10.4 mph - N/A   Overcast
5:56 PM 46.9 °F - 44.1 °F 90% 30.22 in 10.0 mi NNE 12.7 mph - N/A   Overcast
6:56 PM 46.9 °F - 44.1 °F 90% 30.23 in 9.0 mi North 9.2 mph - N/A   Overcast
7:56 PM 46.0 °F 41.0 °F 43.0 °F 89% 30.24 in 10.0 mi NNE 10.4 mph - N/A   Overcast
8:56 PM 46.9 °F - 44.1 °F 90% 30.24 in 10.0 mi NNE 9.2 mph - N/A   Overcast
9:08 PM 46.4 °F 40.4 °F 44.6 °F 93% 30.24 in 10.0 mi NE 13.8 mph - N/A   Overcast
9:56 PM 46.0 °F 40.6 °F 44.1 °F 93% 30.25 in 8.0 mi NNE 11.5 mph - N/A   Overcast
10:56 PM 46.0 °F 41.4 °F 44.1 °F 93% 30.23 in 7.0 mi NNE 9.2 mph - N/A   Overcast
11:56 PM 46.0 °F 42.5 °F 45.0 °F 96% 30.22 in 9.0 mi NNE 6.9 mph - N/A   Overcast